| time (UTC) | temp F | wind direction | speed knots | gust knots | rain 1hr in | rain 24hr in | rain mn in | humidity % | barometer mb |
| 20260505031639 | 83 | 0 | 0.0 | 0.0 | 0.00 | 0.00 | 0.00 | 89 | 983.0 |
| 20260505030126 | 83 | 0 | 0.0 | 0.0 | 0.00 | 0.00 | 0.00 | 92 | 983.0 |
| 20260505024617 | 83 | 0 | 0.0 | 0.0 | 0.00 | 0.00 | 0.00 | 93 | 983.0 |
| 20260505023100 | 82 | 0 | 0.0 | 0.0 | 0.00 | 0.00 | 0.00 | 94 | 983.0 |
| 20260505021436 | 81 | 0 | 0.0 | 0.0 | 0.00 | 0.00 | 0.00 | 98 | 983.0 |
| 20260505015923 | 80 | 0 | 0.0 | 0.0 | 0.00 | 0.00 | 0.00 | 99 | 983.0 |
| 20260505015426 | 81 | 0 | 0.0 | 0.0 | 0.00 | 0.00 | 0.00 | 99 | 983.0 |
| 20260505013913 | 81 | 0 | 0.0 | 0.0 | 0.00 | 0.00 | 0.00 | 99 | 983.0 |
| 20260505012400 | 80 | 0 | 0.0 | 0.0 | 0.00 | 0.00 | 0.00 | 99 | 983.0 |
| 20260505010848 | 81 | 0 | 0.0 | 0.0 | 0.00 | 0.00 | 0.00 | 99 | 982.0 |
| 20260505005335 | 81 | 0 | 0.0 | 0.0 | 0.00 | 0.00 | 0.00 | 99 | 982.0 |
| 20260505003821 | 80 | 0 | 0.0 | 0.0 | 0.00 | 0.00 | 0.00 | 99 | 982.0 |
| 20260505002309 | 80 | 0 | 0.0 | 0.0 | 0.00 | 0.00 | 0.00 | 99 | 982.0 |
| 20260505000756 | 80 | 0 | 0.0 | 0.0 | 0.00 | 0.00 | 0.00 | 99 | 982.0 |
| 20260504235243 | 79 | 0 | 0.0 | 0.0 | 0.00 | 0.00 | 0.00 | 99 | 982.0 |
| 20260504233729 | 79 | 0 | 0.0 | 0.0 | 0.00 | 0.00 | 0.00 | 99 | 981.0 |
| 20260504232217 | 79 | 0 | 0.0 | 0.0 | 0.00 | 0.00 | 0.00 | 99 | 981.0 |
| 20260504230703 | 78 | 0 | 0.0 | 0.0 | 0.00 | 0.00 | 0.00 | 99 | 981.0 |
| 20260504225151 | 78 | 0 | 0.0 | 0.0 | 0.00 | 0.00 | 0.00 | 99 | 981.0 |
| 20260504223638 | 78 | 0 | 0.0 | 0.0 | 0.00 | 0.00 | 0.00 | 99 | 980.0 |
| 20260504222126 | 78 | 0 | 0.0 | 0.0 | 0.00 | 0.00 | 0.00 | 99 | 980.0 |
| 20260504220613 | 78 | 0 | 0.0 | 0.0 | 0.00 | 0.00 | 0.00 | 99 | 980.0 |
| 20260504215101 | 78 | 0 | 0.0 | 0.0 | 0.00 | 0.00 | 0.00 | 99 | 980.0 |
| 20260504213548 | 78 | 0 | 0.0 | 0.0 | 0.00 | 0.00 | 0.00 | 99 | 980.0 |
| 20260504212358 | 78 | 0 | 0.0 | 0.0 | 0.00 | 0.00 | 0.00 | 99 | 980.0 |
| 20260504210845 | 78 | 0 | 0.0 | 0.0 | 0.00 | 0.00 | 0.00 | 99 | 980.0 |
| 20260504205333 | 79 | 0 | 0.0 | 0.0 | 0.00 | 0.00 | 0.00 | 99 | 980.0 |
| 20260504203820 | 79 | 0 | 0.0 | 0.0 | 0.00 | 0.00 | 0.00 | 99 | 980.0 |
| 20260504202307 | 79 | 0 | 0.0 | 0.0 | 0.00 | 0.00 | 0.00 | 99 | 980.0 |
| 20260504200849 | 79 | 0 | 0.0 | 0.0 | 0.00 | 0.00 | 0.00 | 99 | 980.0 |
| 20260504195337 | 80 | 0 | 0.0 | 0.0 | 0.00 | 0.00 | 0.00 | 99 | 980.0 |
| 20260504193951 | 80 | 0 | 0.0 | 0.0 | 0.00 | 0.00 | 0.00 | 99 | 981.0 |
| 20260504192439 | 79 | 0 | 0.0 | 0.0 | 0.00 | 0.00 | 0.00 | 99 | 981.0 |
| 20260504190927 | 79 | 0 | 0.0 | 0.0 | 0.00 | 0.00 | 0.00 | 99 | 981.0 |
| 20260504185414 | 79 | 0 | 0.0 | 0.0 | 0.00 | 0.00 | 0.00 | 99 | 981.0 |
| 20260504183902 | 79 | 0 | 0.0 | 0.0 | 0.00 | 0.00 | 0.00 | 99 | 981.0 |
| 20260504182349 | 79 | 0 | 0.0 | 0.0 | 0.00 | 0.00 | 0.00 | 99 | 981.0 |
| 20260504180836 | 79 | 0 | 0.0 | 0.0 | 0.00 | 0.00 | 0.00 | 99 | 981.0 |
| 20260504175324 | 79 | 0 | 0.0 | 0.0 | 0.00 | 0.00 | 0.00 | 99 | 982.0 |
| 20260504173812 | 79 | 0 | 0.0 | 0.0 | 0.00 | 0.00 | 0.00 | 97 | 982.0 |
| 20260504172259 | 79 | 0 | 0.0 | 0.0 | 0.00 | 0.00 | 0.00 | 99 | 982.0 |
| 20260504170746 | 80 | 0 | 0.0 | 0.0 | 0.00 | 0.00 | 0.00 | 99 | 982.0 |
| 20260504150608 | 86 | 0 | 0.0 | 0.0 | 0.00 | 0.00 | 0.00 | 69 | 980.0 |
| 20260504140518 | 89 | 0 | 0.0 | 0.0 | 0.00 | 0.00 | 0.00 | 57 | 978.0 |
| 20260504081958 | 109 | 0 | 0.0 | 0.0 | 0.00 | 0.00 | 0.00 | 24 | 975.0 |
| 20260504080446 | 107 | 0 | 0.0 | 0.0 | 0.00 | 0.00 | 0.00 | 25 | 975.0 |
| 20260504045737 | 109 | 0 | 0.0 | 0.0 | 0.00 | 0.00 | 0.00 | 24 | 979.0 |
| 20260504044902 | 110 | 0 | 0.0 | 0.0 | 0.00 | 0.00 | 0.00 | 25 | 979.0 |
| 20260504043329 | 106 | 0 | 0.0 | 0.0 | 0.00 | 0.00 | 0.00 | 29 | 980.0 |
| 20260504041820 | 106 | 0 | 0.0 | 0.0 | 0.00 | 0.00 | 0.00 | 30 | 980.0 |
| 20260504040305 | 105 | 0 | 0.0 | 0.0 | 0.00 | 0.00 | 0.00 | 32 | 980.0 |
| 20260504034753 | 104 | 0 | 0.0 | 0.0 | 0.00 | 0.00 | 0.00 | 32 | 980.0 |
| 20260504033241 | 105 | 0 | 0.0 | 0.0 | 0.00 | 0.00 | 0.00 | 32 | 980.0 |